Location: ??
(35.5653°N, 139.6194°E)
Time: 20:34:19
(UTC+00:00)

Cosmos 1725 Rocket - Pass Details

Date: 20 November 2019
Orbit: 962 x 990 km, 82.9° (Epoch: 10 December)

Event Time Altitude Azimuth Distance (km) Brightness Sun altitude
Rises 19:28:10 0° 176° (S) 3,658 7.2 -23.0°
Reaches altitude 10° 19:30:41 10° 174° (S) 2,719 6.5 -22.5°
Maximum altitude 19:36:51 67° 93° (E) 1,061 4.3 -21.3°
Drops below altitude 10° 19:43:06 10° 12° (NNE) 2,751 6.4 -20.1°
Sets 19:45:38 0° 10° (N) 3,706 7.0 -19.5°
